[[{"header":{"parameterUnit":"m.s-1","parameterCategory":1,"la1":30.2991,"la2":30.254,"lo1":-89.0895,"lo2":-89.0444,"dy":0.0017,"dx":0.0017,"nx":28,"ny":28,"refTime":"2025-08-14T09:00:00:Z","depth":0,"parameterNumber":2,"parameterNumberName":"U-component_of_WINDS"},"data":[0,0,0,0,0,0,0,0,0,0,0,0,0,0,0,0,0,0,0,0,0,0,0,0,0,0,0,0,0,0,0,0,0,0,0,0,0,0,0,0,0,0,0,0,0,0,0,0,0,0,0,0,0,0,0,0,0,0,1.5764,1.5764,0,1.582,1.582,1.5821,1.5846,1.5846,1.5846,1.5846,1.5907,1.5909,1.5911,0,0,0,0,0,0,0,0,0,0,0,0,0,1.5683,1.5685,1.5764,1.5764,1.5765,1.582,1.582,1.5821,1.5846,1.5846,1.5846,1.5846,1.5907,1.5909,1.5911,0,0,0,0,0,0,0,0,0,0,0,0,0,1.5727,1.5685,1.5764,1.5784,1.5786,1.5819,1.582,1.5821,1.5846,1.5846,1.5846,1.5846,1.5906,1.5909,1.5911,1.5929,0,0,1.5919,1.592,0,0,0,0,0,0,0,0,1.5724,1.573,1.578,1.5783,1.5785,1.5826,1.5815,1.5858,1.5846,1.5824,1.5846,1.5846,1.5881,1.5885,1.5896,1.5932,1.5935,1.5919,1.5921,1.5922,1.5923,0,0,0,0,0,0,0,1.5721,1.5727,1.5786,1.5781,1.5784,1.5792,1.5798,1.5823,1.5852,1.5826,1.5828,1.5834,1.5882,1.5894,1.5898,1.5936,1.5919,1.5921,1.5923,1.5924,1.5991,1.5991,0,0,0,0,0,0,1.5714,1.5725,1.5784,1.5788,1.5754,1.5794,1.58,1.5813,1.5852,1.5858,1.5834,1.5835,1.5889,1.5895,1.59,1.5925,1.5922,1.5924,1.5926,1.5991,1.5991,1.5991,0,0,0,0,0,0,1.5712,1.5719,1.5782,1.5757,1.5765,1.5795,1.5809,1.5814,1.5826,1.5858,1.5864,1.584,1.5889,1.5896,1.5922,1.5927,1.5925,1.5928,1.5991,1.5991,1.5991,1.5973,0,0,0,0,0,0,1.571,1.5718,1.5724,1.5757,1.5766,1.5801,1.5809,1.5815,1.583,1.5831,1.5865,1.5871,1.589,1.5918,1.5924,1.5931,1.593,1.599,1.5991,1.5991,1.5974,1.5973,1.5973,0,0,0,0,0,1.5707,1.5718,1.5724,1.5731,1.5774,1.5801,1.5807,1.5828,1.583,1.5837,1.5858,1.587,1.5925,1.592,1.5928,1.5935,1.599,1.5991,1.5991,1.5974,1.5973,1.5973,0,0,0,0,0,0,1.5686,1.5722,1.573,1.5751,1.5773,1.5805,1.5815,1.5826,1.5849,1.585,1.5875,1.5883,1.5906,1.5923,1.5917,1.5955,1.5959,1.5961,1.5943,1.5943,1.5943,1.5938,1.5932,0,0,0,0,0,1.5684,1.5701,1.5732,1.5748,1.5758,1.5785,1.5797,1.5811,1.5835,1.5845,1.5868,1.5892,1.5915,1.593,1.5953,1.5976,1.5985,1.5985,1.5985,1.5984,1.5986,1.6001,1.6002,1.5993,1.5993,1.5993,0,0,1.5679,1.5701,1.5711,1.5744,1.5763,1.5782,1.5792,1.5812,1.5827,1.5849,1.5874,1.5892,1.5921,1.5945,1.5957,1.596,1.599,1.5985,1.5984,1.5986,1.6002,1.6003,1.6003,1.5994,1.5994,1.5994,0,0,1.5681,1.5699,1.5714,1.5733,1.576,1.5778,1.5782,1.5813,1.5825,1.5851,1.5868,1.5887,1.5926,1.5946,1.5962,1.5973,1.5985,1.598,1.5977,1.5992,1.5993,1.5994,1.5999,1.6,1.5981,1.5981,1.5981,0,1.5673,1.5701,1.5721,1.574,1.5755,1.5775,1.5792,1.5809,1.5843,1.5854,1.5856,1.5906,1.5927,1.5958,1.596,1.5972,1.5979,1.5976,1.5991,1.5992,1.5993,1.5998,1.6,1.598,1.5981,1.5981,1.5981,0,1.569,1.5709,1.5719,1.575,1.5767,1.5784,1.5809,1.5824,1.5837,1.5854,1.5882,1.5907,1.5936,1.5945,1.5958,1.5978,1.5979,1.5985,1.599,1.5993,1.5998,1.6,1.5979,1.598,1.598,1.598,0,0,1.5679,1.5723,1.5726,1.5741,1.5774,1.579,1.581,1.5837,1.585,1.5873,1.5892,1.5925,1.5931,1.5949,1.5965,1.5977,1.5987,1.5983,1.5984,1.5984,1.6012,1.6007,1.6009,1.5995,1.5995,1.5996,1.601,0,1.5687,1.5721,1.5741,1.5768,1.5788,1.5807,1.5825,1.5847,1.5865,1.5886,1.5906,1.5929,1.5936,1.5947,1.596,1.5982,1.5993,1.5982,1.6014,1.6015,1.6007,1.6012,1.6007,1.6019,1.6012,1.6013,1.6013,0,1.5699,1.5721,1.575,1.5782,1.5791,1.5806,1.5834,1.5852,1.588,1.5892,1.5912,1.5928,1.5951,1.5953,1.5987,1.5979,1.5994,1.6007,1.6008,1.6013,1.6014,1.6018,1.6023,1.6025,1.6016,1.6016,1.6016,0,1.569,1.5728,1.575,1.5762,1.5799,1.581,1.5826,1.5853,1.5869,1.5894,1.5905,1.5932,1.5948,1.5969,1.5993,1.5992,1.6026,1.6029,1.6038,1.6037,1.6044,1.6044,1.6053,1.6052,1.6052,1.6052,1.6052,0,1.5696,1.5714,1.5747,1.576,1.5781,1.5804,1.5825,1.5843,1.5867,1.5886,1.5905,1.5923,1.5953,1.5975,1.5994,1.602,1.6027,1.6039,1.6044,1.6037,1.6036,1.6048,1.6048,1.6053,1.6053,1.6053,1.6052,0,1.569,1.5712,1.5738,1.5771,1.578,1.5794,1.5824,1.5839,1.5858,1.5882,1.5889,1.5919,1.5947,1.5972,1.6009,1.6022,1.6049,1.6055,1.6039,1.6042,1.605,1.6049,1.6068,1.6072,1.6067,1.6067,1.6067,0,1.5692,1.5706,1.5741,1.5755,1.577,1.5792,1.5808,1.5832,1.5849,1.5882,1.5893,1.5922,1.5946,1.5989,1.6015,1.6044,1.6052,1.6056,1.6056,1.605,1.6053,1.6052,1.6055,1.6056,1.6056,1.6056,1.6056,0,1.5695,1.5706,1.5728,1.5754,1.5773,1.5795,1.5818,1.5829,1.5858,1.5875,1.5903,1.5922,1.5959,1.5988,1.602,1.6039,1.6053,1.6056,1.6059,1.6054,1.6044,1.6051,1.6039,1.6055,1.6055,1.6055,1.6055,1.6055,1.5695,1.5708,1.5735,1.5759,1.5779,1.58,1.5817,1.5838,1.586,1.5892,1.5905,1.5934,1.5963,1.6007,1.6026,1.605,1.6053,1.6058,1.6059,1.6061,1.606,1.604,1.6056,1.6056,1.6056,1.6056,1.6056,0,1.5699,1.5718,1.574,1.5771,1.5791,1.5801,1.5828,1.5844,1.5868,1.5893,1.5916,1.5949,1.5978,1.6006,1.6037,1.6051,1.6058,1.6058,1.6058,1.6062,1.6055,1.6049,1.6051,1.6051,1.6051,1.6051,1.6051,1.6051,1.5704,1.5728,1.5742,1.5777,1.5796,1.5823,1.5838,1.5858,1.5878,1.5914,1.5937,1.5955,1.5983,1.6015,1.6043,1.6051,1.6062,1.606,1.607,1.6062,1.6062,1.6063,1.6057,1.6062,1.6062,1.6075,1.6075,1.6076]},{"header":{"parameterUnit":"m.s-1","parameterCategory":1,"la1":30.2991,"la2":30.254,"lo1":-89.0895,"lo2":-89.0444,"dy":0.0017,"dx":0.0017,"nx":28,"ny":28,"refTime":"2025-08-14T09:00:00:Z","depth":0,"parameterNumber":3,"parameterNumberName":"V-component_of_WINDS"},"data":[0,0,0,0,0,0,0,0,0,0,0,0,0,0,0,0,0,0,0,0,0,0,0,0,0,0,0,0,0,0,0,0,0,0,0,0,0,0,0,0,0,0,0,0,0,0,0,0,0,0,0,0,0,0,0,0,0,0,2.0908,2.0909,0,2.0912,2.0912,2.0912,2.0909,2.0909,2.0909,2.0909,2.091,2.091,2.0911,0,0,0,0,0,0,0,0,0,0,0,0,0,2.0894,2.0894,2.0908,2.0909,2.0909,2.0912,2.0912,2.0912,2.091,2.0909,2.0909,2.0909,2.091,2.091,2.0911,0,0,0,0,0,0,0,0,0,0,0,0,0,2.0899,2.0894,2.0908,2.0908,2.0908,2.0912,2.0912,2.0912,2.091,2.0909,2.0909,2.0909,2.091,2.091,2.0911,2.0916,0,0,2.0911,2.0911,0,0,0,0,0,0,0,0,2.0899,2.09,2.0908,2.0908,2.0908,2.091,2.0908,2.0913,2.091,2.0909,2.0909,2.0909,2.091,2.091,2.0911,2.0916,2.0916,2.0911,2.0911,2.0912,2.0912,0,0,0,0,0,0,0,2.0899,2.09,2.091,2.0908,2.0908,2.0905,2.0906,2.0909,2.091,2.0909,2.0909,2.0909,2.091,2.0911,2.0911,2.0916,2.0911,2.0911,2.0912,2.0912,2.092,2.092,0,0,0,0,0,0,2.0899,2.0899,2.091,2.091,2.0903,2.0906,2.0907,2.091,2.091,2.091,2.0909,2.0909,2.0911,2.0911,2.0912,2.0915,2.0912,2.0912,2.0912,2.092,2.092,2.092,0,0,0,0,0,0,2.0898,2.09,2.091,2.0905,2.0906,2.0906,2.091,2.091,2.0911,2.0911,2.0911,2.0911,2.0911,2.0911,2.0914,2.0915,2.0912,2.0912,2.092,2.092,2.092,2.0924,0,0,0,0,0,0,2.0898,2.09,2.0903,2.0905,2.0906,2.0914,2.091,2.091,2.0912,2.0911,2.0912,2.0912,2.0911,2.0914,2.0914,2.0916,2.0912,2.092,2.092,2.092,2.0924,2.0924,2.0925,0,0,0,0,0,2.0898,2.0904,2.0903,2.0904,2.091,2.0914,2.0914,2.0914,2.0912,2.0914,2.0913,2.0912,2.0915,2.0914,2.0915,2.0916,2.092,2.092,2.092,2.0924,2.0924,2.0925,0,0,0,0,0,0,2.0902,2.0904,2.0903,2.0911,2.0912,2.0913,2.0916,2.0915,2.0916,2.0916,2.0914,2.0914,2.0917,2.0917,2.0915,2.0919,2.0917,2.0917,2.0919,2.092,2.092,2.092,2.0912,0,0,0,0,0,2.0904,2.0908,2.0909,2.0915,2.0916,2.0916,2.0917,2.0917,2.0918,2.0918,2.0918,2.0918,2.0918,2.0919,2.092,2.0924,2.0922,2.0924,2.0925,2.0925,2.0926,2.0925,2.0925,2.0921,2.0921,2.0921,0,0,2.0908,2.091,2.0912,2.0916,2.0917,2.0919,2.0917,2.092,2.0921,2.0918,2.0921,2.092,2.092,2.0922,2.0923,2.0922,2.0926,2.0926,2.0926,2.0926,2.0925,2.0925,2.0926,2.0921,2.0921,2.0921,0,0,2.0916,2.0919,2.0923,2.0923,2.0925,2.0924,2.0925,2.0926,2.0925,2.0928,2.0925,2.0926,2.0928,2.0927,2.0927,2.0931,2.0929,2.0931,2.0934,2.0933,2.0933,2.0933,2.0933,2.0933,2.0931,2.0931,2.0931,0,2.0921,2.0925,2.0925,2.0928,2.0928,2.0926,2.0929,2.0929,2.0931,2.093,2.0929,2.093,2.093,2.0931,2.0931,2.0932,2.0931,2.0931,2.0933,2.0933,2.0934,2.0933,2.0933,2.0932,2.0932,2.0931,2.0931,0,2.093,2.0933,2.0936,2.0937,2.0938,2.0941,2.0939,2.094,2.0938,2.0937,2.0938,2.0937,2.0936,2.0936,2.0935,2.0936,2.0935,2.0934,2.0931,2.0934,2.0934,2.0934,2.0932,2.0932,2.0932,2.0932,0,0,2.0942,2.0942,2.0943,2.0942,2.0942,2.0943,2.0945,2.0945,2.0944,2.0944,2.0944,2.0944,2.0942,2.0942,2.094,2.0939,2.094,2.0937,2.0937,2.0937,2.0939,2.0939,2.094,2.0938,2.0938,2.0938,2.0938,0,2.0949,2.0953,2.0951,2.0954,2.0955,2.0952,2.0953,2.0952,2.095,2.0949,2.0947,2.0947,2.0945,2.0944,2.0943,2.094,2.094,2.094,2.0937,2.0936,2.0936,2.094,2.0941,2.0941,2.0938,2.0938,2.0938,0,2.0958,2.0958,2.0962,2.0959,2.0959,2.096,2.0958,2.0959,2.0956,2.0955,2.0953,2.095,2.0949,2.0947,2.0944,2.0944,2.0942,2.094,2.094,2.094,2.0937,2.0938,2.0941,2.0941,2.0938,2.0938,2.0938,0,2.0965,2.0966,2.0967,2.0967,2.0964,2.0965,2.0963,2.0961,2.096,2.0958,2.0957,2.0954,2.0953,2.095,2.0946,2.0945,2.0943,2.0941,2.094,2.094,2.094,2.094,2.0942,2.094,2.094,2.094,2.094,0,2.0972,2.0974,2.097,2.0971,2.0972,2.0969,2.0969,2.0967,2.0964,2.0963,2.096,2.0958,2.0953,2.0951,2.0947,2.0944,2.0944,2.0941,2.094,2.0941,2.0941,2.094,2.0939,2.094,2.094,2.094,2.094,0,2.098,2.0978,2.0979,2.0976,2.0975,2.0975,2.0972,2.0971,2.0968,2.0967,2.0966,2.0961,2.0958,2.0954,2.0949,2.0946,2.0943,2.0942,2.0944,2.0943,2.0942,2.0942,2.0943,2.0942,2.0942,2.0942,2.0942,0,2.0985,2.0986,2.0982,2.0982,2.098,2.0979,2.0978,2.0974,2.0973,2.0968,2.0968,2.0964,2.0961,2.0955,2.0951,2.0946,2.0944,2.0945,2.0944,2.0944,2.0943,2.0942,2.0941,2.0945,2.0945,2.0945,2.0945,0,2.0993,2.0991,2.099,2.0987,2.0986,2.0984,2.0981,2.0981,2.0976,2.0974,2.097,2.0968,2.0962,2.0958,2.0952,2.0949,2.0945,2.0945,2.0945,2.0946,2.0946,2.0944,2.0944,2.0945,2.0945,2.0945,2.0945,2.0945,2.0998,2.0998,2.0995,2.0993,2.099,2.0988,2.0986,2.0983,2.098,2.0976,2.0973,2.0969,2.0964,2.0956,2.0953,2.0949,2.0948,2.0947,2.0947,2.0946,2.0946,2.0947,2.0948,2.0948,2.0948,2.0948,2.0948,0,2.1004,2.1002,2.1,2.0996,2.0994,2.0991,2.0988,2.0986,2.0983,2.0978,2.0975,2.097,2.0965,2.0959,2.0953,2.095,2.0948,2.0949,2.0949,2.0948,2.0948,2.0949,2.0951,2.0951,2.0951,2.0951,2.0951,2.0951,2.1007,2.1006,2.1004,2.1,2.0997,2.0994,2.0992,2.0988,2.0985,2.0979,2.0975,2.0971,2.0966,2.0959,2.0954,2.0952,2.0949,2.095,2.0948,2.0948,2.0948,2.0948,2.0948,2.095,2.095,2.0947,2.0947,2.0947]}]]